Location: Summit Observatory
(39.5293°N, 75.7290°W)
Time: 04:52:24
(UTC-05:00)

XW-2F - Pass Details

Date: 29 October 2019
Orbit: 503 x 524 km, 97.5° (Epoch: 19 November)

Event Time Altitude Azimuth Distance (km) Brightness Sun altitude
Rises 18:26:37 0° 171° (S) 2,605 ? -4.8°
Reaches altitude 10° 18:28:42 10° 173° (S) 1,720 ? -5.2°
Maximum altitude 18:32:24 72° 258° (WSW) 536 ? -5.9°
Drops below altitude 10° 18:36:06 10° 344° (NNW) 1,725 ? -6.6°
Sets 18:38:12 0° 346° (NNW) 2,612 ? -7.0°
